Wetbulb
69.31 70.46 70.66 66.31 55.97 55.00 49.79 52.71 56.76 55.52 56.73 59.99 60.36 59.37 59.59 60.96 58.48 55.55 66.71 66.89 65.22 68.80 68.93 69.47 69.95 69.99 70.60 70.69 70.61 70.93 71.08 71.08 70.77 70.51 69.86 69.61 68.44 67.95 67.49 66.95 66.71 66.27 65.96 65.67 64.91 64.38 64.01 64.06 64.35
70.13 68.78 66.66 61.92 52.74 48.47 49.23 55.56 53.95 57.06 60.32 61.04 61.24 60.92 60.42 59.00 62.22 62.87 64.11 66.27 65.94 68.60 68.41 68.68 69.25 70.24 70.41 70.30 70.24 70.46 70.47 70.41 70.43 70.64 70.39 69.77 69.06 68.26 67.81 67.18 66.83 66.43 66.41 66.01 65.46 64.99 64.84 64.76 64.95
67.14 65.91 60.72 56.89 52.88 47.90 48.54 55.29 56.08 59.31 61.15 60.85 60.38 63.56 62.26 59.15 62.50 63.67 66.78 65.41 66.08 67.88 67.90 68.05 69.13 69.88 70.34 70.20 70.06 69.83 69.43 69.17 68.82 68.31 67.83 66.97 66.39 66.87 66.30 67.34 66.66 66.39 65.66 66.08 65.69 65.13 65.00 65.07 65.21
63.09 61.97 60.71 52.90 50.77 53.52 54.67 56.77 58.11 58.95 59.39 61.36 61.95 59.82 63.26 64.77 63.52 65.84 66.43 65.22 66.27 66.63 65.55 67.44 69.40 69.47 70.25 70.08 69.71 68.66 67.92 67.45 67.08 66.69 66.51 66.06 65.89 65.33 64.90 64.78 65.63 66.54 66.46 66.64 66.13 65.90 65.49 65.04 64.57
62.39 60.22 52.47 51.57 51.20 54.93 57.34 58.69 59.81 58.18 59.19 60.38 61.85 59.33 60.41 64.04 66.80 66.32 64.44 65.04 66.38 66.09 68.13 67.99 68.94 69.31 69.77 69.84 68.78 67.62 67.12 66.75 66.51 66.35 66.12 65.89 65.21 64.98 64.64 64.49 64.13 64.00 63.83 63.72 63.94 64.21 64.17 64.25 64.63
56.74 57.46 49.68 48.84 51.21 55.88 58.02 59.19 59.52 58.88 59.73 60.78 60.38 60.61 60.79 65.18 65.30 64.97 64.17 65.55 67.48 65.98 69.07 67.49 66.51 68.15 69.25 69.17 68.45 68.09 67.02 66.17 66.09 65.41 65.05 65.02 65.01 64.79 64.76 64.91 64.83 64.71 64.78 65.12 65.32 65.31 65.20 65.26 65.44
55.09 52.45 50.56 50.77 50.48 53.94 56.06 58.63 58.76 58.49 58.77 59.29 62.61 58.93 61.38 61.99 65.33 65.09 64.53 66.49 67.39 66.17 68.12 67.96 68.25 67.80 65.74 67.04 67.71 68.14 67.53 66.76 66.16 65.73 65.43 65.06 64.88 64.86 64.67 64.12 64.20 64.71 65.03 65.37 65.62 65.81 65.93 66.04 66.11
57.20 54.08 50.77 52.36 51.03 51.27 56.16 57.62 59.51 59.21 58.08 63.13 63.31 58.13 58.53 62.38 65.49 65.26 64.85 65.92 67.12 66.60 66.28 66.39 66.96 65.84 65.75 67.08 65.52 66.60 66.98 66.76 66.41 65.87 65.05 64.33 64.46 64.58 64.05 64.25 64.31 65.24 65.69 65.69 65.84 65.89 66.04 66.15 65.92
58.71 50.22 47.83 51.16 52.05 52.59 56.22 55.43 57.94 59.18 58.95 60.54 61.25 61.45 64.35 64.81 65.28 63.85 63.09 63.19 64.18 65.63 67.07 67.95 66.35 66.52 66.68 67.09 65.94 65.12 65.84 65.60 64.98 64.81 63.67 64.30 66.93 66.83 66.02 63.63 63.94 64.24 64.36 65.19 65.74 65.90 65.95 65.35 64.06
53.77 50.12 49.72 54.54 55.01 53.55 54.81 55.26 56.19 56.68 57.68 57.97 59.79 63.07 65.16 64.48 63.52 61.72 61.01 60.64 61.56 62.94 64.94 66.58 67.24 66.80 66.45 66.72 67.75 67.83 67.89 68.22 67.63 67.15 67.41 67.13 66.72 66.75 64.71 61.22 61.96 62.45 62.92 64.03 65.29 65.41 64.70 62.43 66.15
54.24 49.82 53.01 53.92 54.57 54.65 53.69 54.80 56.78 55.60 55.35 57.94 58.34 61.35 62.47 63.20 62.51 61.51 61.13 61.40 62.63 64.01 64.16 65.16 67.67 67.00 66.34 66.65 67.85 67.69 67.91 67.72 67.01 67.25 68.00 67.32 66.69 67.05 66.91 66.59 66.33 66.81 60.59 66.73 66.40 66.96 66.93 67.05 66.90
50.61 53.85 53.69 54.10 54.25 54.42 53.69 55.34 54.33 55.64 56.77 59.02 60.58 62.82 62.38 62.14 61.86 61.50 61.17 61.43 62.01 63.03 64.31 65.71 66.08 66.31 66.94 67.43 67.24 67.33 66.99 66.93 66.82 67.22 67.48 66.86 66.60 67.08 67.18 66.95 67.28 67.65 67.76 67.46 67.82 67.50 67.52 67.10 66.98
50.98 52.63 53.87 55.13 54.57 54.72 55.41 54.06 54.03 54.91 58.54 59.18 61.92 62.05 61.96 62.45 62.59 62.83 62.94 63.36 62.62 62.30 63.33 64.61 65.97 65.89 66.21 66.03 65.78 65.58 65.34 65.80 67.00 67.33 67.36 67.32 67.23 67.35 67.64 67.65 67.86 68.01 68.01 67.50 67.38 66.91 66.46 66.45 66.21
53.07 52.92 53.01 54.51 54.34 54.52 52.67 53.96 53.91 55.67 59.37 59.55 61.22 60.92 61.97 62.48 62.99 63.09 63.25 63.24 62.64 62.52 62.63 64.30 64.89 64.90 64.35 64.25 64.46 65.00 66.58 67.40 67.95 68.05 68.32 67.87 67.85 67.75 67.66 67.63 67.02 67.15 67.92 67.12 66.84 66.18 65.92 65.60 65.51
52.66 49.35 51.89 53.01 53.73 53.08 54.58 51.00 51.60 57.20 59.24 59.09 60.09 60.71 60.71 62.16 63.43 62.86 63.82 63.57 63.16 63.12 63.10 63.01 63.55 64.29 64.17 64.61 65.93 66.88 67.88 68.07 68.10 68.23 68.41 68.29 68.01 67.76 67.49 66.82 66.52 66.88 66.74 65.90 66.13 65.66 65.00 64.10 63.97
48.38 48.95 45.05 51.54 53.17 53.29 53.01 47.90 53.54 57.30 58.18 57.96 59.32 58.98 59.07 60.48 62.16 63.43 64.98 64.87 64.63 64.45 63.99 63.93 64.05 64.99 66.03 66.63 67.27 67.71 68.14 68.19 67.94 67.99 68.12 67.22 67.16 67.30 66.86 65.79 65.17 65.64 65.50 64.41 62.66 62.24 61.44 61.06 60.08
46.19 40.82 43.36 47.31 53.08 51.81 51.42 48.83 53.62 56.35 57.70 57.96 58.56 58.06 58.46 59.40 61.40 64.88 65.34 65.37 65.44 65.42 64.79 64.45 65.82 66.35 67.04 67.73 67.90 67.78 67.73 67.33 66.83 66.25 65.43 64.54 64.03 64.64 64.86 63.23 62.25 62.63 62.03 61.15 59.85 59.28 58.69 57.69 57.28
40.13 40.61 43.07 44.97 49.37 50.93 48.98 49.82 52.33 55.11 56.61 57.03 58.87 58.97 58.34 59.29 61.73 64.64 65.06 65.72 65.98 65.84 65.77 65.76 66.25 67.05 67.63 67.91 67.84 67.07 66.24 64.08 63.18 62.01 61.39 61.46 60.91 61.07 61.41 60.51 59.67 59.69 58.72 57.72 56.90 56.62 57.14 56.93 55.73
45.34 43.76 42.40 46.98 49.89 48.33 48.65 48.77 51.76 54.28 55.10 55.39 58.04 58.93 59.38 60.29 63.29 64.58 65.03 65.80 66.00 66.42 66.34 66.34 66.29 66.96 67.11 66.65 65.95 64.90 62.83 61.03 59.71 59.48 59.49 59.15 58.94 59.14 59.05 58.14 57.04 57.22 55.54 54.62 54.38 54.63 54.73 55.10 55.57
44.34 43.19 42.38 45.38 46.51 47.61 48.48 47.80 51.60 53.59 54.40 56.10 57.25 58.51 58.99 60.18 62.16 62.79 63.58 64.58 64.82 64.84 65.65 65.85 65.86 65.44 66.45 66.89 66.57 66.09 62.15 60.14 58.25 56.13 54.76 54.95 54.50 54.41 53.85 53.96 52.92 52.82 52.84 51.81 51.51 51.74 50.72 52.36 53.51
42.11 39.64 42.36 42.25 45.32 46.80 47.01 45.76 48.44 52.15 53.91 55.51 57.76 59.62 59.69 59.98 59.82 61.66 61.91 61.72 62.17 61.40 61.60 61.42 60.73 61.46 63.21 63.93 63.44 61.15 58.38 57.09 55.41 53.07 50.73 50.42 50.59 50.82 51.43 50.70 50.73 50.55 50.45 48.96 48.89 48.97 48.73 47.35 50.50
37.95 43.57 42.32 43.20 41.55 38.35 46.17 38.12 45.95 49.63 50.69 52.37 55.49 57.75 59.20 59.90 59.94 59.79 58.93 58.59 59.07 56.90 56.76 57.05 56.95 57.72 59.29 61.14 60.59 58.77 57.03 53.85 52.36 50.05 49.25 47.88 48.05 47.67 48.26 48.29 47.97 48.40 48.24 46.77 47.59 47.16 47.30 46.91 44.89
42.04 45.53 43.12 42.78 41.57 40.82 41.19 39.05 45.22 49.12 47.68 50.49 53.76 57.10 59.19 60.20 59.41 58.42 57.44 56.30 54.22 53.90 53.75 53.91 54.05 54.28 55.84 57.44 58.63 57.16 53.28 51.51 50.65 49.07 47.18 46.40 45.82 45.64 45.45 45.83 45.76 45.56 45.78 45.34 45.18 44.87 44.34 44.76 44.06
47.88 45.12 42.87 43.13 40.80 33.07 39.49 39.23 41.11 45.98 48.46 50.63 53.11 56.50 58.76 59.15 57.46 55.97 54.01 52.62 51.38 51.90 52.10 51.72 50.99 50.78 52.21 53.04 53.30 51.73 49.74 48.48 47.49 47.19 45.91 45.15 44.56 44.24 43.97 44.38 44.35 43.61 43.23 43.02 43.53 44.11 42.67 42.46 42.30
45.44 40.89 32.47 30.81 30.45 32.79 39.69 38.78 43.17 48.35 50.02 51.91 51.63 54.76 56.99 55.85 53.82 51.60 50.33 49.90 49.42 48.92 49.07 49.27 48.47 46.80 47.68 47.54 47.20 47.69 47.35 46.32 44.33 43.76 44.04 43.74 43.07 42.38 41.88 42.17 41.55 41.09 41.33 41.70 42.16 40.99 40.50 40.20 39.60
42.56 41.06 34.95 29.72 30.94 32.83 38.25 34.89 41.15 47.47 49.00 48.72 51.62 52.44 52.54 51.90 51.42 50.51 49.91 48.57 47.41 46.79 46.21 44.98 43.89 42.64 41.94 43.05 41.76 42.06 43.28 43.03 42.11 41.52 42.00 41.88 41.31 40.32 40.62 40.37 39.81 39.53 39.49 39.98 39.97 38.84 38.53 38.48 38.42
41.31 37.62 40.98 34.80 33.07 33.93 36.57 39.59 45.35 46.45 46.32 45.72 46.98 48.49 48.74 49.23 49.07 47.80 47.40 46.61 44.72 43.41 42.52 40.60 40.06 40.03 39.36 39.80 40.28 40.05 39.81 40.14 39.73 40.10 39.98 39.40 39.07 38.46 38.58 38.56 38.14 37.93 37.99 38.17 38.04 36.47 35.97 36.42 35.98
42.16 42.46 34.77 35.56 30.23 31.18 34.69 35.69 40.17 41.53 44.29 44.36 44.46 46.53 47.35 47.29 45.73 45.44 44.29 44.02 42.61 41.44 41.65 40.82 39.18 38.94 39.09 38.20 37.97 37.93 37.83 37.99 37.95 37.83 36.85 36.63 36.66 37.01 36.77 36.50 36.69 36.70 36.63 36.63 36.30 35.23 34.85 34.54 34.66
38.82 37.36 38.89 39.55 36.79 32.91 31.42 36.46 41.40 44.27 46.34 44.61 45.04 46.33 45.96 45.49 44.42 44.21 43.70 42.91 42.48 41.39 40.05 38.98 38.22 38.17 37.34 37.66 37.38 36.38 36.25 36.47 36.13 35.44 35.60 35.73 35.53 35.23 34.69 34.66 34.77 34.89 34.80 34.99 34.49 33.65 33.38 32.62 32.71
39.87 39.72 40.34 36.63 32.60 34.38 34.15 37.29 41.03 42.98 47.57 46.31 45.52 45.61 46.00 45.51 44.73 44.33 43.09 42.58 41.41 41.26 40.53 40.00 38.91 37.76 37.38 36.65 36.12 35.16 34.82 34.67 34.61 34.58 34.30 34.23 33.22 33.61 33.30 33.26 33.52 33.78 33.79 33.55 32.77 31.94 31.70 30.84 30.34
MSLP
1013.30 1012.44 1012.01 1011.52 1010.23 1008.09 1006.95 1006.23 1006.31 1006.42 1006.70 1007.38 1007.52 1007.82 1008.22 1009.45 1010.20 1011.88 1013.00 1013.54 1013.97 1014.60 1015.96 1016.65 1017.08 1017.38 1017.58 1017.72 1017.79 1017.93 1018.08 1018.28 1018.46 1018.63 1018.81 1019.05 1019.17 1019.30 1019.40 1019.47 1019.43 1019.51 1019.63 1019.73 1019.83 1019.87 1019.87 1019.88 1019.88
1012.36 1012.06 1011.75 1010.13 1008.68 1006.72 1006.08 1005.89 1006.32 1006.41 1007.19 1007.78 1008.26 1008.46 1008.67 1010.44 1011.85 1012.73 1013.36 1013.88 1014.14 1014.65 1015.85 1016.44 1017.33 1017.65 1017.89 1018.06 1018.15 1018.36 1018.50 1018.66 1018.78 1018.93 1019.09 1019.30 1019.44 1019.55 1019.64 1019.71 1019.71 1019.71 1019.81 1019.90 1019.99 1020.08 1020.14 1020.13 1020.05
1012.68 1012.16 1011.02 1009.00 1007.50 1006.17 1006.47 1005.90 1006.13 1007.27 1007.71 1007.87 1008.45 1009.01 1009.48 1011.31 1012.63 1012.68 1013.27 1013.97 1014.39 1014.83 1015.54 1016.73 1017.54 1017.93 1018.15 1018.34 1018.52 1018.64 1018.83 1019.00 1019.15 1019.33 1019.50 1019.65 1019.75 1019.85 1019.96 1019.97 1019.90 1020.00 1019.97 1020.09 1020.17 1020.24 1020.27 1020.22 1020.11
1011.83 1011.82 1010.48 1008.98 1006.73 1006.12 1005.92 1005.79 1006.55 1007.50 1008.16 1008.34 1008.40 1009.52 1011.18 1011.91 1012.53 1012.90 1013.84 1014.09 1014.55 1015.17 1015.92 1017.34 1017.74 1018.11 1018.35 1018.62 1018.85 1019.07 1019.20 1019.34 1019.48 1019.63 1019.77 1019.93 1020.03 1020.15 1020.22 1020.28 1020.33 1020.35 1020.21 1020.30 1020.26 1020.32 1020.27 1020.21 1020.12
1011.91 1010.85 1009.54 1008.11 1006.67 1005.82 1006.05 1006.48 1006.84 1007.24 1007.66 1008.22 1008.65 1009.82 1011.48 1012.62 1013.07 1013.55 1013.99 1014.36 1014.70 1015.44 1016.24 1017.33 1017.91 1018.29 1018.58 1018.85 1019.13 1019.33 1019.51 1019.67 1019.83 1019.98 1020.06 1020.15 1020.24 1020.35 1020.43 1020.48 1020.53 1020.57 1020.55 1020.45 1020.39 1020.38 1020.34 1020.28 1020.20
1011.53 1010.28 1009.17 1007.42 1006.44 1006.25 1006.47 1006.78 1006.93 1007.14 1007.63 1008.31 1008.83 1010.00 1012.11 1013.57 1013.39 1013.82 1014.18 1014.42 1014.69 1015.68 1016.45 1017.46 1018.16 1018.48 1018.79 1019.06 1019.33 1019.55 1019.77 1019.95 1020.10 1020.24 1020.37 1020.46 1020.54 1020.60 1020.61 1020.65 1020.66 1020.61 1020.58 1020.54 1020.52 1020.48 1020.43 1020.37 1020.27
1011.43 1010.13 1008.86 1007.30 1006.52 1006.28 1006.68 1007.34 1007.05 1007.23 1007.80 1008.30 1008.59 1009.74 1012.56 1013.93 1013.52 1013.98 1014.27 1014.62 1014.85 1015.88 1016.37 1017.33 1018.00 1018.66 1019.07 1019.33 1019.56 1019.75 1019.94 1020.15 1020.30 1020.45 1020.57 1020.69 1020.76 1020.80 1020.84 1020.86 1020.83 1020.73 1020.62 1020.56 1020.52 1020.46 1020.38 1020.26 1020.10
1011.57 1010.83 1008.90 1007.61 1006.99 1006.68 1007.56 1007.60 1007.41 1007.50 1008.02 1008.86 1009.23 1009.59 1011.68 1013.40 1013.58 1014.02 1014.46 1014.97 1015.92 1016.29 1016.57 1017.15 1017.73 1018.37 1018.78 1019.31 1019.80 1019.97 1020.11 1020.30 1020.50 1020.66 1020.79 1020.85 1020.85 1020.86 1020.90 1020.79 1020.81 1020.75 1020.67 1020.57 1020.45 1020.35 1020.21 1020.01 1019.85
1011.97 1010.75 1009.03 1007.59 1007.10 1007.33 1008.04 1007.86 1008.18 1008.45 1008.63 1009.17 1009.96 1009.99 1010.70 1013.07 1013.47 1013.99 1014.76 1015.95 1016.73 1016.90 1017.06 1017.13 1017.68 1017.91 1018.28 1018.74 1019.67 1020.08 1020.21 1020.38 1020.56 1020.62 1020.76 1020.68 1020.10 1020.11 1020.18 1020.51 1020.65 1020.65 1020.56 1020.42 1020.27 1020.16 1020.02 1019.89 1019.55
1011.98 1010.37 1009.13 1008.02 1008.00 1007.97 1008.36 1008.35 1008.16 1008.49 1008.66 1009.33 1010.33 1011.09 1011.98 1013.19 1013.35 1013.97 1014.72 1016.05 1016.75 1017.08 1017.67 1018.02 1018.03 1017.78 1018.15 1018.36 1019.22 1019.40 1019.76 1019.83 1020.08 1020.08 1019.96 1019.90 1019.89 1019.96 1020.36 1020.37 1020.50 1020.47 1020.41 1020.25 1020.07 1019.91 1019.71 1019.58 1018.76
1011.89 1010.36 1009.47 1009.14 1009.34 1009.14 1008.78 1008.60 1008.56 1008.26 1008.28 1008.52 1009.49 1011.17 1012.40 1012.81 1013.35 1013.88 1014.53 1015.49 1016.49 1017.10 1017.65 1018.11 1017.96 1017.83 1018.18 1018.48 1018.82 1019.29 1019.72 1020.01 1020.29 1020.37 1020.03 1019.79 1019.86 1019.74 1019.78 1019.71 1019.67 1019.66 1020.12 1019.38 1019.55 1019.27 1019.04 1018.96 1018.86
1012.30 1010.76 1010.01 1009.81 1010.04 1009.60 1009.10 1009.28 1008.77 1008.43 1008.29 1008.85 1009.08 1011.14 1012.31 1012.58 1013.03 1013.64 1014.21 1015.01 1015.95 1016.69 1017.30 1017.83 1017.56 1017.70 1018.00 1018.25 1018.67 1018.82 1019.44 1019.99 1020.04 1019.97 1019.84 1019.82 1019.65 1019.63 1019.60 1019.50 1019.51 1019.46 1019.28 1019.29 1019.14 1019.00 1018.95 1018.86 1018.58
1011.59 1010.55 1010.52 1010.16 1010.18 1010.01 1009.70 1009.30 1009.00 1008.69 1008.44 1009.40 1009.75 1011.49 1012.23 1012.55 1013.06 1013.63 1014.09 1014.76 1015.65 1016.19 1016.77 1017.33 1017.44 1017.67 1018.08 1018.54 1018.60 1018.84 1019.04 1019.34 1019.28 1019.51 1019.72 1019.75 1019.64 1019.56 1019.44 1019.40 1019.33 1019.25 1019.11 1018.98 1018.94 1018.76 1018.57 1018.46 1018.17
1010.79 1010.76 1010.65 1010.31 1010.24 1010.14 1009.83 1009.27 1009.35 1008.89 1009.19 1009.59 1010.53 1011.64 1012.23 1012.42 1012.97 1013.51 1014.01 1014.54 1015.24 1015.83 1016.34 1016.91 1017.47 1017.76 1018.05 1018.46 1018.68 1018.83 1018.91 1019.08 1019.37 1019.43 1019.48 1019.67 1019.66 1019.56 1019.46 1019.27 1019.16 1019.14 1019.13 1019.29 1019.11 1018.99 1018.91 1018.64 1018.55
1011.55 1011.37 1011.15 1010.46 1010.35 1010.05 1009.65 1009.23 1008.75 1008.94 1009.48 1009.92 1010.69 1011.80 1012.63 1012.57 1013.04 1013.59 1014.17 1014.57 1015.09 1015.62 1016.14 1016.80 1017.38 1017.82 1018.04 1018.30 1018.58 1018.71 1018.92 1019.19 1019.26 1019.36 1019.46 1019.65 1019.69 1019.54 1019.48 1019.37 1019.33 1019.26 1019.22 1019.26 1019.21 1019.07 1018.75 1018.44 1018.09
1012.26 1011.90 1011.18 1010.18 1010.16 1009.97 1009.76 1008.41 1008.55 1009.24 1009.73 1010.12 1010.84 1012.01 1012.86 1013.15 1013.42 1014.02 1014.11 1014.38 1014.98 1015.44 1016.01 1016.70 1017.27 1017.63 1017.90 1018.07 1018.45 1018.63 1018.83 1019.04 1019.21 1019.31 1019.50 1019.80 1019.80 1019.73 1019.53 1019.57 1019.75 1019.72 1019.60 1019.49 1019.46 1019.25 1019.11 1018.93 1018.63
1012.11 1011.47 1011.22 1010.05 1009.88 1009.72 1009.57 1008.55 1008.66 1009.50 1009.51 1009.85 1011.03 1012.04 1012.78 1013.21 1013.52 1013.38 1013.56 1014.12 1014.66 1015.19 1015.84 1016.38 1017.04 1017.36 1017.74 1018.00 1018.27 1018.59 1018.93 1019.16 1019.50 1019.78 1020.06 1020.24 1020.33 1020.20 1020.00 1020.18 1020.28 1020.06 1019.99 1020.00 1020.08 1019.80 1019.69 1019.43 1019.19
1011.51 1011.65 1011.35 1010.06 1009.96 1009.71 1009.35 1008.80 1008.79 1009.31 1009.14 1009.77 1010.42 1011.60 1012.34 1012.80 1012.89 1012.70 1013.37 1014.05 1014.58 1015.12 1015.63 1016.10 1016.71 1017.09 1017.54 1017.86 1018.19 1018.67 1019.30 1019.77 1020.21 1020.58 1020.74 1020.76 1020.87 1020.78 1020.60 1020.74 1020.83 1020.62 1020.63 1020.63 1020.64 1020.55 1020.31 1020.02 1019.81
1011.54 1011.67 1011.71 1010.91 1009.97 1009.96 1009.20 1009.02 1008.52 1008.99 1009.18 1009.90 1010.00 1010.48 1011.26 1011.63 1012.04 1012.55 1013.37 1014.07 1014.70 1015.25 1015.64 1016.11 1016.56 1017.02 1017.51 1017.93 1018.29 1018.78 1019.48 1020.38 1020.97 1021.29 1021.42 1021.47 1021.54 1021.40 1021.32 1021.40 1021.40 1021.13 1021.29 1021.34 1021.21 1021.12 1020.68 1020.43 1020.36
1012.00 1011.81 1012.05 1011.80 1011.51 1010.84 1009.51 1008.96 1008.59 1008.34 1008.98 1009.48 1009.72 1009.92 1010.45 1011.00 1011.71 1012.71 1013.58 1014.31 1014.96 1015.57 1015.87 1016.25 1016.60 1017.27 1017.50 1017.70 1018.05 1018.46 1019.55 1020.38 1021.11 1021.70 1022.05 1022.21 1022.39 1022.41 1022.23 1022.23 1022.14 1022.09 1021.94 1022.12 1021.86 1021.69 1021.44 1021.01 1020.92
1012.21 1012.56 1012.28 1012.44 1012.46 1011.81 1010.00 1009.16 1008.57 1008.24 1008.42 1008.87 1009.30 1009.39 1010.05 1010.67 1012.24 1012.99 1013.97 1014.73 1015.31 1016.03 1016.49 1016.94 1017.41 1017.70 1017.96 1018.27 1018.70 1019.28 1020.32 1020.89 1021.39 1022.04 1022.62 1022.93 1023.12 1023.18 1023.29 1023.26 1023.12 1022.88 1022.71 1022.83 1022.80 1022.52 1022.30 1022.14 1021.70
1012.35 1012.86 1013.11 1013.12 1013.20 1011.98 1011.06 1008.91 1007.90 1007.67 1007.80 1008.37 1008.77 1009.11 1009.70 1010.65 1012.22 1013.51 1014.66 1015.33 1015.88 1016.75 1017.37 1017.74 1018.09 1018.24 1018.52 1018.71 1019.08 1019.52 1020.09 1020.88 1021.78 1022.46 1023.05 1023.49 1023.60 1023.90 1023.97 1024.09 1024.02 1023.91 1023.72 1023.72 1023.57 1023.38 1023.24 1022.87 1022.40
1011.54 1012.48 1013.05 1013.70 1013.26 1012.77 1012.00 1011.16 1007.54 1007.40 1007.38 1007.69 1008.34 1009.00 1009.73 1010.91 1012.28 1013.62 1014.96 1015.91 1016.95 1017.63 1018.05 1018.48 1018.82 1018.98 1019.09 1019.23 1019.49 1019.87 1020.78 1021.71 1022.36 1022.97 1023.49 1023.77 1024.19 1024.54 1024.64 1024.80 1024.73 1024.56 1024.47 1024.26 1024.13 1024.09 1024.03 1023.74 1023.55
1011.56 1012.48 1013.23 1013.56 1013.52 1013.06 1011.91 1011.26 1008.90 1007.11 1007.10 1007.36 1008.11 1008.96 1009.89 1011.21 1012.96 1014.48 1015.81 1016.79 1017.86 1018.48 1018.84 1019.17 1019.58 1019.91 1020.02 1020.10 1020.44 1021.04 1021.72 1022.35 1022.89 1023.36 1023.86 1024.12 1024.10 1024.89 1025.24 1025.29 1025.32 1025.26 1025.19 1025.15 1024.84 1024.57 1024.67 1024.59 1024.45
1011.89 1012.31 1013.43 1014.30 1014.01 1013.19 1012.25 1011.52 1009.13 1008.00 1007.83 1007.72 1008.36 1009.47 1010.69 1012.25 1013.87 1015.38 1016.45 1017.37 1018.41 1019.19 1019.76 1020.18 1020.59 1021.10 1021.37 1021.47 1021.71 1022.02 1022.53 1023.05 1023.72 1024.19 1024.69 1025.36 1024.46 1025.46 1025.83 1025.88 1025.96 1025.91 1025.72 1025.62 1025.43 1025.28 1025.12 1025.17 1025.13
1011.61 1011.80 1012.17 1012.66 1012.76 1013.02 1012.61 1011.19 1009.86 1009.37 1009.40 1009.53 1009.49 1010.75 1012.16 1013.40 1014.89 1015.97 1016.89 1018.08 1019.14 1019.89 1020.61 1021.23 1022.02 1022.49 1022.85 1022.98 1023.24 1023.35 1023.37 1023.82 1024.42 1024.38 1025.00 1025.96 1025.99 1026.07 1026.47 1026.50 1026.55 1026.41 1026.26 1025.93 1025.95 1025.97 1025.78 1025.89 1025.99
1012.40 1012.19 1012.39 1012.17 1013.02 1012.51 1011.99 1011.30 1009.89 1009.83 1010.09 1010.67 1011.20 1012.20 1013.36 1014.45 1015.67 1016.97 1018.10 1018.99 1019.90 1020.70 1021.46 1022.09 1022.67 1023.62 1024.15 1023.88 1024.31 1024.69 1024.59 1024.07 1024.77 1024.94 1025.75 1026.61 1026.80 1026.61 1026.98 1027.14 1026.91 1026.91 1026.82 1026.75 1026.56 1026.81 1026.69 1026.57 1026.38
1012.37 1012.44 1012.97 1012.91 1012.56 1011.42 1011.00 1010.62 1008.99 1009.63 1010.00 1011.03 1012.09 1012.90 1014.10 1015.42 1016.79 1018.02 1019.36 1020.11 1020.87 1021.42 1022.07 1022.81 1023.73 1024.14 1025.22 1025.91 1024.98 1025.34 1025.41 1025.32 1026.08 1025.85 1026.43 1026.73 1027.03 1027.23 1027.41 1027.46 1027.27 1027.21 1027.38 1027.20 1027.16 1027.27 1027.21 1026.98 1026.97
1013.00 1012.50 1012.60 1012.14 1011.83 1010.69 1010.29 1009.45 1008.91 1008.80 1009.68 1010.86 1012.25 1013.57 1014.96 1016.18 1017.43 1018.69 1019.94 1020.88 1021.44 1022.14 1022.64 1023.37 1024.04 1024.83 1025.39 1025.99 1025.50 1025.81 1026.47 1026.80 1026.93 1027.06 1026.90 1027.30 1027.56 1027.70 1027.90 1027.82 1027.70 1027.82 1027.88 1027.81 1027.71 1027.59 1027.52 1027.40 1027.37
1013.37 1012.42 1012.04 1011.71 1011.83 1011.28 1010.85 1009.63 1009.65 1009.57 1009.74 1011.09 1012.52 1014.17 1015.65 1016.80 1017.92 1019.32 1020.34 1021.15 1021.70 1022.38 1023.02 1023.59 1023.99 1024.84 1025.43 1025.93 1026.14 1026.64 1027.19 1027.33 1027.50 1027.75 1027.78 1027.88 1028.02 1028.18 1028.13 1028.08 1028.08 1028.20 1028.16 1028.19 1027.98 1027.87 1027.88 1027.88 1027.84
Wind_Speed
5 7 4 5 8 7 8 7 2 5 6 3 7 2 10 12 9 6 12 7 16 17 15 13 11 11 11 11 11 10 13 14 13 14 13 12 11 11 11 10 9 10 9 9 8 8 8 8 8
6 4 6 6 9 10 9 6 7 5 8 8 6 4 1 8 7 11 11 12 16 16 13 14 10 11 12 11 12 13 14 13 13 12 12 11 11 10 9 8 8 8 8 7 7 7 7 7 7
7 7 8 6 11 9 4 7 6 7 8 7 5 4 4 6 11 12 14 17 15 15 12 14 10 11 11 11 12 12 11 11 11 10 10 9 8 8 7 6 7 6 5 5 5 5 5 6 7
4 5 6 9 13 6 6 6 7 11 5 3 1 9 8 4 9 8 17 17 15 13 13 13 11 12 10 12 12 10 9 9 9 8 8 8 8 7 6 6 6 5 6 6 3 4 5 5 6
7 4 8 12 14 6 3 4 8 10 10 9 5 7 9 6 8 16 17 15 15 14 14 13 11 11 10 10 10 9 8 7 7 6 7 7 7 7 7 6 6 5 4 3 3 4 5 5 6
8 4 8 13 15 8 3 3 8 7 7 8 5 10 9 6 12 15 16 15 15 14 14 14 10 9 9 9 8 8 7 7 7 7 6 6 6 5 5 4 3 3 3 4 4 5 6 7 7
11 5 14 16 8 11 4 3 9 8 7 7 5 9 7 9 13 15 15 14 14 14 13 13 12 10 7 7 7 7 7 6 6 6 6 5 4 4 3 2 2 3 3 4 5 6 6 7 8
5 3 18 10 13 5 4 5 3 9 7 5 1 7 8 14 15 15 14 14 10 11 11 12 12 11 10 9 6 6 6 5 5 5 4 3 3 3 3 4 1 3 5 5 6 7 7 8 9
5 6 11 16 10 7 5 5 5 4 7 3 3 5 7 21 18 16 14 10 9 6 4 10 9 10 9 10 8 6 5 4 4 5 5 6 4 3 4 4 1 4 6 7 8 8 8 9 12
10 11 17 3 1 5 3 4 9 7 9 7 7 7 19 21 19 18 17 13 13 12 9 6 6 8 8 5 9 5 6 5 4 2 4 3 1 2 4 4 4 7 7 9 9 8 9 9 5
16 15 5 4 3 1 2 3 4 9 11 9 13 15 18 20 18 17 15 15 13 12 8 8 10 9 8 6 6 4 3 1 1 3 5 2 2 2 2 2 2 2 7 4 4 3 4 6 5
19 18 7 6 2 3 1 4 4 9 6 5 5 19 19 21 18 16 15 15 14 14 12 11 11 9 8 5 4 5 5 4 4 5 4 2 2 1 2 2 3 2 2 4 4 4 5 7 8
24 15 11 7 4 5 5 5 5 6 5 2 11 18 19 18 17 14 13 13 12 12 12 12 11 9 7 6 4 3 3 4 2 2 2 2 2 2 2 3 3 4 4 4 5 6 7 8 9
14 11 11 7 6 5 6 8 3 2 4 8 14 15 16 17 17 14 13 13 13 12 12 12 10 8 8 6 5 4 3 3 2 1 1 1 2 3 4 4 4 5 4 5 5 7 7 7 7
3 14 14 14 10 7 6 9 7 6 6 10 12 13 14 15 15 14 11 12 12 11 12 11 10 9 7 7 6 4 3 2 2 0 0 2 3 4 5 5 4 5 5 6 6 6 6 7 7
6 5 15 16 15 7 7 12 11 7 8 10 11 11 13 14 15 14 14 13 13 12 12 11 9 10 8 6 5 4 3 2 1 0 2 4 4 5 4 4 5 5 3 4 6 6 6 7 7
11 8 20 15 16 9 13 10 14 6 9 9 10 11 12 13 14 16 15 12 12 11 12 12 11 10 9 7 5 3 3 1 3 4 5 6 7 7 5 5 5 6 5 6 6 6 6 7 7
8 16 15 21 15 13 14 11 5 7 8 6 11 13 13 14 16 17 15 12 11 10 10 11 10 10 9 6 5 4 5 4 5 5 5 6 7 8 6 5 6 6 5 6 7 8 7 6 7
8 13 15 22 11 16 16 15 11 7 7 8 11 14 15 16 17 15 13 12 11 9 9 10 10 10 8 6 7 6 6 5 6 6 8 9 8 8 8 6 6 6 6 8 8 7 8 5 7
4 16 10 6 3 9 16 15 14 10 11 14 12 13 15 16 17 14 14 12 10 9 9 8 8 7 7 6 5 5 7 6 7 7 8 9 10 10 8 7 7 8 6 8 9 8 6 4 7
4 2 13 4 4 11 4 15 15 15 11 9 12 13 14 17 16 15 13 11 9 8 7 6 6 6 5 6 6 7 8 7 6 6 7 9 10 10 9 10 7 7 7 7 8 8 9 6 6
6 8 6 11 7 6 7 9 19 18 15 13 12 12 14 16 15 14 13 11 10 8 7 7 7 7 5 7 8 10 7 7 7 7 7 7 10 10 10 9 9 8 6 8 6 7 6 6 6
6 16 11 7 10 5 8 6 12 18 18 16 14 14 15 15 15 15 12 11 10 8 8 8 9 9 7 6 6 6 9 8 7 7 8 8 8 10 10 9 8 8 5 7 7 7 8 6 6
2 9 7 2 1 3 7 11 14 13 17 17 15 14 16 15 13 12 11 11 10 8 9 9 10 11 10 10 11 11 11 9 7 7 6 5 6 6 9 8 7 8 8 8 7 7 9 8 7
12 10 3 3 3 1 4 9 8 4 1 10 14 14 13 14 14 13 13 12 11 11 10 9 11 12 12 13 11 11 11 11 11 8 6 4 6 6 8 8 8 6 7 7 7 8 7 8 7
14 8 4 3 4 4 1 6 7 5 6 2 7 12 13 14 13 13 13 13 12 12 12 12 11 12 11 11 11 8 11 8 7 8 7 6 5 6 6 6 6 7 8 7 7 6 6 7 6
5 6 4 5 3 3 5 4 12 6 5 7 11 13 14 13 13 14 13 13 13 13 12 10 11 10 8 10 9 9 7 10 9 10 7 5 5 5 6 5 6 7 8 7 7 6 7 6 6
4 10 5 1 5 5 6 3 6 9 12 11 12 14 15 14 15 13 13 13 12 12 11 13 9 11 9 5 7 7 10 9 7 6 6 6 5 5 5 6 6 7 7 7 6 5 6 6 5
5 4 3 2 3 2 4 4 4 3 13 14 13 13 15 16 16 15 13 12 12 10 9 9 9 8 7 6 8 8 6 6 6 5 6 6 5 5 5 6 6 6 6 6 6 5 6 7 6
5 5 7 4 4 1 3 3 3 2 11 13 15 14 15 16 16 14 12 11 10 10 8 8 9 8 5 5 6 6 6 5 5 5 6 5 6 5 4 4 4 4 5 5 6 7 7 7 8
Wind_Direction
194 200 261 250 235 228 249 177 32 153 154 60 83 316 59 34 4 59 131 126 141 133 138 149 138 136 122 107 113 132 131 127 126 119 117 109 102 96 92 88 78 90 85 83 80 76 70 62 52
245 244 241 274 252 197 219 127 197 140 84 126 113 129 150 80 60 137 123 145 150 132 156 141 135 137 126 116 99 97 101 100 101 100 103 94 92 86 88 92 91 81 86 80 78 72 61 51 36
253 278 262 234 236 226 235 161 126 116 134 158 123 9 28 70 120 135 119 145 145 141 142 122 133 138 131 119 108 103 102 100 98 96 96 96 96 94 85 64 78 61 91 79 71 65 49 30 20
275 208 242 244 219 168 230 112 136 147 157 194 106 101 95 32 129 130 143 145 147 135 130 132 138 143 137 124 117 113 110 108 107 107 105 101 97 90 83 76 67 45 62 45 47 42 24 11 1
235 237 250 230 252 171 187 79 160 175 159 162 198 119 97 90 103 132 144 149 144 139 131 144 140 143 137 129 128 124 117 110 106 102 102 105 104 99 94 86 77 62 47 37 22 3 354 351 347
261 258 237 224 227 169 168 150 180 175 153 128 176 131 112 111 145 146 149 150 143 138 141 134 133 138 136 130 129 119 110 106 107 103 96 96 98 98 94 81 66 50 25 9 0 350 339 335 335
265 247 242 229 251 164 135 228 194 171 170 171 112 151 103 146 160 151 154 149 135 140 141 145 151 138 120 123 123 113 106 103 108 108 101 95 92 85 72 47 18 359 347 336 331 327 322 316 316
269 253 247 236 209 162 125 168 219 185 149 91 334 173 163 163 174 155 152 150 130 148 154 152 152 161 162 150 126 121 118 116 115 111 107 111 160 177 201 225 164 323 319 311 304 304 302 297 294
255 235 235 219 224 132 137 205 182 64 133 169 120 15 106 144 165 157 143 143 162 159 159 153 164 165 169 158 141 150 148 145 154 167 174 221 235 200 198 104 337 295 291 283 283 286 289 286 269
224 224 231 33 70 108 132 264 154 187 164 165 143 120 122 156 163 165 163 164 172 171 160 169 164 173 170 162 156 196 147 177 193 211 195 233 260 327 309 282 239 256 260 269 260 261 258 253 309
221 239 200 178 116 30 68 159 260 222 189 178 180 149 156 164 168 173 169 167 176 174 169 177 185 188 177 178 160 176 169 193 206 249 282 273 285 270 242 310 225 279 197 287 241 273 286 329 310
243 218 190 152 144 352 50 338 230 234 81 28 155 155 168 171 172 176 175 167 175 177 179 179 194 182 185 180 206 168 180 173 199 200 225 265 272 304 291 311 313 273 314 314 307 309 311 304 304
218 186 214 209 257 286 303 261 281 260 202 147 129 152 176 174 174 176 175 163 171 180 176 179 190 180 181 198 184 189 192 192 175 172 181 265 277 287 302 315 306 311 311 314 316 316 315 311 313
193 192 198 202 235 263 271 276 269 110 133 150 149 161 178 176 176 172 175 170 175 175 174 173 179 185 175 186 184 180 173 146 194 176 146 232 291 309 322 308 312 311 343 313 313 324 322 312 322
246 203 233 229 230 265 249 242 220 103 174 157 163 162 178 178 177 174 181 176 175 176 166 169 171 177 179 189 174 180 157 189 196 225 292 345 320 322 315 313 322 329 328 332 333 307 327 322 323
161 182 210 225 222 233 212 225 179 150 183 170 165 163 179 179 180 188 186 175 174 173 167 166 168 176 180 180 173 171 162 188 156 52 8 18 356 335 318 352 21 350 334 351 347 337 343 329 333
193 186 216 207 182 187 196 228 134 185 181 171 169 174 177 183 185 194 175 173 171 172 173 169 173 174 176 177 179 164 135 104 67 54 42 38 32 16 28 31 21 358 10 13 352 351 354 342 348
195 191 203 212 183 210 195 236 143 177 153 214 178 172 181 186 195 183 167 172 169 174 174 168 172 175 174 166 177 149 92 86 70 56 57 41 43 30 41 43 29 23 23 22 10 359 358 360 344
179 178 196 214 164 190 205 211 221 157 146 224 205 178 181 183 183 165 170 168 164 176 174 170 168 172 171 170 171 164 138 103 82 69 53 51 38 41 36 42 32 27 35 27 20 0 353 359 1
42 185 199 216 32 235 206 214 224 186 194 194 212 185 179 174 170 163 176 171 171 169 174 175 159 172 187 178 179 127 129 104 101 83 64 53 51 38 45 36 40 30 31 29 27 18 2 358 19
229 348 209 179 139 274 214 227 228 228 216 197 210 186 181 175 176 175 166 166 150 152 143 146 140 148 157 136 129 114 111 120 108 88 69 54 50 48 38 37 35 38 36 30 22 17 18 352 13
195 195 266 215 185 203 206 229 206 213 208 207 196 197 183 169 175 167 167 154 139 117 108 114 113 115 114 145 145 150 143 118 94 95 88 71 58 50 43 39 37 33 31 29 15 19 7 1 5
222 176 174 241 188 162 197 255 244 189 207 201 198 190 185 174 171 159 160 135 122 126 113 109 103 95 100 113 122 105 99 109 105 101 92 89 70 54 47 39 35 32 30 28 27 19 16 14 4
143 134 75 127 125 218 181 197 219 194 214 203 195 180 179 160 153 146 131 129 118 113 104 100 99 88 85 87 91 101 110 111 111 105 97 83 80 56 38 37 33 31 23 18 24 25 28 16 18
197 146 116 193 179 210 198 197 266 31 161 224 176 171 153 151 148 146 141 130 120 107 98 94 90 85 77 86 83 83 88 87 79 69 61 54 63 48 33 29 31 30 29 29 37 34 35 26 26
189 191 163 207 173 123 37 215 223 330 59 337 224 161 149 153 149 150 136 123 116 104 96 88 81 79 73 72 77 85 89 93 93 75 67 44 52 52 34 38 41 43 36 36 40 38 31 32 24
160 199 40 108 13 142 186 257 273 199 179 141 142 149 154 144 139 130 129 123 112 105 96 98 96 81 68 82 83 77 98 84 76 78 73 67 46 55 46 40 49 45 43 35 48 40 31 34 25
222 142 97 58 180 213 158 237 244 196 189 165 161 162 148 138 129 129 122 119 108 104 99 91 71 83 72 43 75 70 55 70 70 81 86 80 64 58 55 53 54 51 42 39 44 40 30 30 26
141 160 189 186 267 286 149 192 36 239 183 173 164 153 148 147 142 137 129 121 116 110 100 103 99 93 91 59 67 64 79 80 80 84 75 77 74 63 61 57 55 51 46 37 40 41 28 30 23
290 175 177 193 190 54 339 103 50 309 152 162 151 150 150 146 138 135 135 137 135 135 129 131 124 113 114 114 117 104 108 91 82 78 83 74 75 66 67 67 71 64 54 47 39 36 25 22 20